Time,TemperatureF,DewpointF,PressureIn,WindDirection,WindDirectionDegrees,WindSpeedMPH,WindSpeedGustMPH,Humidity,HourlyPrecipIn,Conditions,Clouds,dailyrainin,SoftwareType,DateUTC
2013-10-08 00:43:00,60.0,-99.9,30.02,NW,305,6.0,9.0,-999,0.00,,,-99.99,,2013-10-08 04:43:00,
2013-10-08 00:53:00,59.0,-99.9,30.03,NW,319,3.0,10.0,-999,-99.99,,,-99.99,,2013-10-08 04:53:00,
2013-10-08 01:42:00,59.0,-99.9,30.03,NW,319,3.0,10.0,-999,-99.99,,,-99.99,,2013-10-08 05:42:00,
2013-10-08 02:42:00,58.0,-99.9,30.06,WNW,293,8.0,12.0,-999,0.00,,,-99.99,,2013-10-08 06:42:00,
2013-10-08 02:52:00,58.0,-99.9,30.06,WNW,293,8.0,12.0,-999,0.00,,,-99.99,,2013-10-08 06:52:00,
2013-10-08 04:42:00,55.0,-99.9,30.09,West,269,5.0,9.0,-999,0.00,,,-99.99,,2013-10-08 08:42:00,
2013-10-08 04:52:00,55.0,-99.9,30.09,West,269,5.0,9.0,-999,0.00,,,-99.99,,2013-10-08 08:52:00,
2013-10-08 04:53:00,53.0,-99.9,30.11,WNW,285,5.0,9.0,-999,0.00,,,-99.99,,2013-10-08 08:53:00,
2013-10-08 05:43:00,53.0,-99.9,30.11,WNW,285,5.0,9.0,-999,0.00,,,-99.99,,2013-10-08 09:43:00,
2013-10-08 05:53:00,53.0,-99.9,30.14,WNW,283,5.0,10.0,-999,0.00,,,-99.99,,2013-10-08 09:53:00,
2013-10-08 06:42:00,53.0,-99.9,30.14,WNW,283,5.0,10.0,-999,0.00,,,-99.99,,2013-10-08 10:42:00,
2013-10-08 07:42:00,53.0,-99.9,30.16,West,265,4.0,9.0,-999,0.00,,,-99.99,,2013-10-08 11:42:00,
2013-10-08 07:52:00,53.0,-99.9,30.16,West,265,4.0,9.0,-999,0.00,,,-99.99,,2013-10-08 11:52:00,
2013-10-08 08:42:00,54.0,-99.9,30.21,NW,305,5.0,6.0,-999,0.00,,,-99.99,,2013-10-08 12:42:00,
2013-10-08 08:52:00,54.0,-99.9,30.21,NW,305,5.0,6.0,-999,0.00,,,-99.99,,2013-10-08 12:52:00,
2013-10-08 09:42:00,55.0,-99.9,30.23,West,262,6.0,8.0,-999,0.00,,,-99.99,,2013-10-08 13:42:00,
2013-10-08 09:52:00,55.0,-99.9,30.23,West,262,6.0,8.0,-999,0.00,,,-99.99,,2013-10-08 13:52:00,
2013-10-08 10:42:00,59.0,-99.9,30.24,WNW,295,7.0,9.0,-999,0.00,,,-99.99,,2013-10-08 14:42:00,
2013-10-08 10:52:00,59.0,-99.9,30.24,WNW,295,7.0,9.0,-999,0.00,,,-99.99,,2013-10-08 14:52:00,
2013-10-08 10:53:00,61.0,-99.9,30.24,NW,313,7.0,12.0,-999,0.00,,,-99.99,,2013-10-08 14:53:00,
2013-10-08 11:44:00,61.0,-99.9,30.24,NW,313,7.0,12.0,-999,0.00,,,-99.99,,2013-10-08 15:44:00,
2013-10-08 11:53:00,62.0,-99.9,30.25,NW,311,10.0,13.0,-999,0.00,,,-99.99,,2013-10-08 15:53:00,
2013-10-08 12:43:00,62.0,-99.9,30.25,NW,311,10.0,13.0,-999,0.00,,,-99.99,,2013-10-08 16:43:00,
2013-10-08 13:43:00,63.0,-99.9,30.24,NW,316,5.0,12.0,-999,0.00,,,-99.99,,2013-10-08 17:43:00,
2013-10-08 13:52:00,63.0,-99.9,30.24,NW,316,5.0,12.0,-999,0.00,,,-99.99,,2013-10-08 17:52:00,
2013-10-08 13:53:00,64.0,-99.9,30.23,NW,325,7.0,9.0,-999,0.00,,,-99.99,,2013-10-08 17:53:00,
2013-10-08 14:42:00,64.0,-99.9,30.23,NW,325,7.0,9.0,-999,0.00,,,-99.99,,2013-10-08 18:42:00,
2013-10-08 14:53:00,64.0,-99.9,30.24,NNW,331,6.0,10.0,-999,0.00,,,-99.99,,2013-10-08 18:53:00,
2013-10-08 15:43:00,64.0,-99.9,30.24,NNW,331,6.0,10.0,-999,0.00,,,-99.99,,2013-10-08 19:43:00,
2013-10-08 16:42:00,64.0,-99.9,30.25,NNE,16,10.0,12.0,-999,0.00,,,-99.99,,2013-10-08 20:42:00,
2013-10-08 16:52:00,64.0,-99.9,30.25,NNE,16,10.0,12.0,-999,0.00,,,-99.99,,2013-10-08 20:52:00,
2013-10-08 16:53:00,65.0,-99.9,30.23,NNE,16,5.0,11.0,-999,0.00,,,-99.99,,2013-10-08 20:53:00,
2013-10-08 17:44:00,65.0,-99.9,30.23,NNE,16,5.0,11.0,-999,0.00,,,-99.99,,2013-10-08 21:44:00,
2013-10-08 17:53:00,64.0,-99.9,30.25,NNE,33,5.0,10.0,-999,0.00,,,-99.99,,2013-10-08 21:53:00,
2013-10-08 18:50:00,64.0,-99.9,30.25,NNE,33,5.0,10.0,-999,0.00,,,-99.99,,2013-10-08 22:50:00,
2013-10-08 18:53:00,64.0,-99.9,30.26,North,6,5.0,11.0,-999,0.00,,,-99.99,,2013-10-08 22:53:00,
2013-10-08 19:42:00,64.0,-99.9,30.26,North,6,5.0,11.0,-999,0.00,,,-99.99,,2013-10-08 23:42:00,
2013-10-08 20:43:00,64.0,-99.9,30.26,North,356,8.0,10.0,-999,0.00,,,-99.99,,2013-10-09 00:43:00,
2013-10-08 20:52:00,64.0,-99.9,30.26,North,356,8.0,10.0,-999,0.00,,,-99.99,,2013-10-09 00:52:00,
2013-10-08 21:43:00,64.0,-99.9,30.28,NNE,31,12.0,13.0,-999,0.00,,,-99.99,,2013-10-09 01:43:00,
2013-10-08 22:42:00,64.0,-99.9,30.29,NNE,29,7.0,10.0,-999,0.00,,,-99.99,,2013-10-09 02:42:00,
2013-10-08 22:52:00,64.0,-99.9,30.29,NNE,29,7.0,10.0,-999,0.00,,,-99.99,,2013-10-09 02:52:00,
2013-10-08 22:53:00,64.0,-99.9,30.29,NNE,24,9.0,16.0,-999,0.00,,,-99.99,,2013-10-09 02:53:00,
2013-10-08 23:45:00,64.0,-99.9,30.29,NNE,24,9.0,16.0,-999,0.00,,,-99.99,,2013-10-09 03:45:00,
2013-10-08 23:53:00,63.0,-99.9,30.29,North,349,8.0,15.0,-999,0.00,,,-99.99,,2013-10-09 03:53:00,